User: anonymous   Login
Location: Unspecified
(0.0000°N, 0.0000°E)
Time: 09:31:15
(UTC+00:00)
Language:

GOES 1 - Orbit

View from above orbital plane
View from above orbital plane
View from above satellite
View from above satellite

Ground track
Ground track

The orbit data is extracted from the following two-line orbital elements,

1 08366U 75100A   17327.33267615 -.00000171  00000-0  00000+0 0  9998
2 08366  11.7878 316.6112 0006970 292.6362 200.8959  1.00234373153846
Epoch (UTC): 23 November 2017 07:59:03
Eccentricity: 0.0006970
inclination: 11.7878°
perigee height: 35767 km
apogee height: 35826 km
right ascension of ascending node: 316.6112°
argument of perigee: 292.6362°
revolutions per day: 1.00234373
mean anomaly at epoch: 200.8959°
orbit number at epoch: 15384

The dashed part of the orbit path shows where the satellite is in the earth's shadow,  

DLR